カタログに戻る

SL-12 DEB

LostHEO
NORAD 44871·DEBRIS·🇷🇺 Russia

打ち上げ Sep 2, 2010 から Baikonur Cosmodrome

Loading…

次のパス (今後24時間)

TLE

古いSource: Space-Track

元期: Jan 12, 2023, 23:31 UTC

1 44871U 10041AL  23012.97997031 -.00001564  00000-0 -87810-2 0  9997
2 44871  65.5561 224.0600 5690253 332.3866   6.4769  4.20153138 51183

AllMySatでSL-12 DEBをリアルタイム追跡

Download on the App Store